SCP
0 0 0 0 0 0 0 0 0 0 0 0 0 0 0 0 0 0 0 0 0 0 0 0 0 0 0 0 0 0 0 0 0 0 0 0 0 0 0 0 0 0 0 0 0
0 0 0 0 0 0 0 0 0 0 0 0 0 0 0 0 0 0 0 0 0 0 0 0 0 0 0 0 0 0 0 0 0 0 0 0 0 0 0 0 0 0 0 0 0
0 0 0 0 0 0 0 0 0 0 0 0 0 0 0 0 -0 0 0 0 0 -0 0 0 0 0 0 0 0 0 0 0 0 0 0 0 0 0 0 0 0 0 0 0 0
0 0 0 0 0 0 0 0 0 0 -0 0 0 0 -0 -0 0 0 0 0 0 -0 -0 0 0 0 0 0 0 0 0 0 0 0 0 0 0 0 0 0 0 0 0 0 0
0 0 0 0 0 0 0 0 0 0 0 -0 0 0 -0 -0 0 0 0 0 0 0 0 0 0 0 0 0 0 0 0 0 0 0 0 0 0 0 0 0 0 0 0 0 0
0 0 0 0 0 0 0 0 0 0 -0 -0 0 0 -0 -0 0 0 0 0 0 0 0 0 0 0 0 0 0 0 0 0 0 0 0 0 0 0 0 0 0 0 0 0 0
0 0 0 0 0 0 0 0 0 -0 -0 0 0 0 0 0 0 0 0 0 0 0 0 0 0 0 0 0 0 0 0 0 0 0 0 0 0 0 0 0 0 0 0 0 0
0 0 0 0 0 0 0 0 -0 0 0 0 0 -0 -0 0 0 0 0 0 0 0 0 0 0 0 0 0 0 0 0 0 0 0 0 0 0 0 0 0 0 0 0 0 0
0 0 0 0 0 0 0 0 0 0 0 0 -0 0 0 0 0 -0 0 0 0 0 0 0 0 0 0 0 0 0 0 0 0 0 0 0 0 0 0 0 0 0 0 0 0
0 0 0 0 0 0 0 -0 0 -0 0 -0 0 -0 0 0 0 0 0 0 0 0 0 0 0 0 0 0 0 0 0 0 0 0 0 0 0 0 0 0 0 0 0 0 0
0 0 0 0 -0 -0 -0 -0 -0 -0 0 0 0 0 0 0 0 0 0 0 0 0 0 0 0 0 0 0 0 0 0 0 0 0 0 0 0 0 0 0 0 0 0 0 0
0 0 0 0 -0 -0 -0 -0 -0 0 -0 0 0 0 -0 0 0 0 0 0 0 0 0 0 0 0 0 0 0 0 0 0 0 0 0 0 0 0 0 0 0 0 0 0 0
0 0 0 0 -0 -0 0 -0 -0 -0 -0 0 0 0 0 0 0 0 0 0 0 0 0 0 0 0 0 0 0 0 0 0 0 0 0 0 0 0 0 0 0 0 0 0 0
0 0 0 0 -0 -0 0 0 0 -0 -0 0 0 0 0 0 0 0 0 0 0 0 0 0 0 0 0 0 0 0 0 0 0 0 0 0 0 0 0 0 0 0 0 0 0
0 0 0 0 0 0 0 0 0 -0 0 0 0 0 0 0 0 0 0 0 0 0 0 0 0 0 0 0 0 0 0 0 0 0 0 0 0 0 0 0 0 0 0 0 0
0 0 0 -0 0 0 -0 -0 0 -0 0 0 0 0 0 0 0 0 0 0 0 -0 0 0 0 0 0 0 0 0 0 0 0 0 0 0 0 0 0 0 0 0 0 0 0
0 0 0 0 0 -0 0 -0 -0 0 0 0 0 0 0 0 0 0 0 0 0 0 0 0 0 0 0 0 0 0 0 0 0 0 0 0 0 0 0 0 0 0 0 0 0
0 0 0 0 0 0 0 0 0 0 0 0 0 0 0 0 0 0 -0 -0 -0 -0 0 0 0 0 0 0 0 0 0 0 0 0 0 0 0 0 0 0 0 0 0 0 0
0 0 0 0 0 0 0 0 0 0 0 0 0 0 0 0 0 0 0 0 -0 -0 0 0 0 0 0 -0 0 0 0 0 0 0 0 0 0 0 0 0 0 0 0 0 0
0 0 0 0 0 0 0 0 0 0 0 0 0 0 0 0 0 0 0 -0 -0 -0 -0 0 0 -0 0 0 -0 0 0 0 0 0 0 0 0 0 0 0 0 0 0 0 0
0 0 0 0 0 0 0 0 0 0 0 0 0 0 0 0 0 0 0 -0 -0 0 -0 0 0 0 0 0 0 0 0 0 0 0 0 0 0 0 0 0 0 0 0 0 0
0 0 0 0 0 0 0 0 0 0 0 0 0 0 0 0 0 0 0 -0 -0 0 -0 0 0 0 0 0 0 -0 -0 0 0 0 0 0 0 0 0 0 0 0 0 0 0
0 0 0 0 0 0 0 0 0 0 0 0 0 0 0 0 0 -0 0 0 -0 0 -0 -0 -0 -0 0 0 0 0 0 0 0 0 0 0 0 0 0 0 0 0 0 0 0
0 0 0 0 0 0 0 0 0 0 0 0 0 0 0 0 0 0 -0 -0 0 -0 0 0 0 0 0 -0 0 0 0 0 0 0 0 0 0 0 0 0 0 0 0 0 0
0 0 0 0 0 0 0 0 0 0 0 0 0 0 0 0 0 -0 -0 -0 0 0 -0 0 -0 -0 0 0 0 0 0 -0 0 0 0 0 0 0 0 0 0 0 0 0 0
0 0 0 0 0 0 0 0 0 0 0 0 0 0 0 0 -0 -0 -0 0 0 0 -0 0 -0 -0 -0 0 0 0 0 0 0 0 0 0 0 0 0 0 0 0 0 0 0
0 0 0 0 0 0 0 0 0 0 0 0 0 -0 -0 -0 -0 -0 -0 -0 -0 -0 -0 -0 -0 0 -0 -0 0 0 0 0 0 0 0 0 0 0 0 0 0 0 0 0 0
Wind_Speed_500mb
18 19 21 22 24 27 29 31 33 35 37 40 40 41 41 44 45 47 36 16 24 27 29 22 19 21 27 30 26 21 21 31 37 36 25 7 20 17 12 14 9 6 8 2 9
19 20 22 26 27 28 30 33 33 34 37 41 44 43 43 45 46 21 2 9 20 14 18 20 25 26 26 30 21 28 29 45 33 27 22 12 21 13 18 28 21 17 14 10 11
20 22 25 26 27 28 31 33 34 36 38 39 41 41 42 43 30 3 7 13 19 20 7 15 18 26 37 31 38 29 47 35 27 34 38 33 32 30 27 31 32 30 15 20 20
20 24 27 27 31 33 34 34 34 36 37 39 40 41 38 35 16 11 17 23 35 32 20 10 15 27 25 40 44 34 40 42 42 42 34 35 42 33 38 42 37 29 34 32 32
20 25 27 30 33 36 37 37 39 41 41 41 42 41 33 14 14 23 23 22 18 18 14 23 27 28 33 24 41 39 38 43 40 46 48 43 45 46 55 41 51 42 41 41 39
25 28 30 33 36 39 42 42 44 45 43 40 41 41 22 16 23 21 25 30 33 27 20 21 28 34 34 32 34 30 31 39 41 44 49 47 52 53 44 35 54 49 49 47 43
24 26 30 33 37 40 43 46 47 45 44 42 40 33 23 15 19 26 22 21 19 22 31 30 25 24 11 26 34 33 37 37 41 43 40 35 51 53 54 55 65 64 55 48 46
23 27 31 36 41 45 47 48 48 43 41 38 32 22 8 15 14 21 22 17 19 20 22 28 35 31 34 31 35 26 33 34 26 22 42 40 51 6 5 24 33 37 44 41 40
22 27 33 39 45 47 48 51 42 37 32 32 20 26 6 14 41 46 45 43 44 23 28 19 18 33 32 30 32 33 38 41 31 20 25 35 39 30 14 31 38 33 35 32 34
22 29 34 40 45 50 52 47 35 27 33 26 20 18 10 41 49 39 38 32 27 35 28 12 16 21 32 31 41 33 41 36 43 34 34 44 47 33 33 27 28 30 35 38 43
24 28 32 36 41 50 55 32 18 4 38 10 23 8 18 38 26 31 42 45 23 28 32 30 20 43 42 46 52 44 48 45 37 15 25 34 42 39 37 48 42 47 54 52 50
24 26 29 34 34 43 42 21 19 12 14 11 9 6 13 28 40 25 46 27 32 27 30 29 48 58 38 41 45 47 51 56 41 33 28 41 56 49 46 44 52 52 56 61 61
21 23 28 32 21 35 35 27 17 13 6 11 8 8 12 41 40 21 57 41 32 30 23 38 74 24 45 37 42 47 51 39 42 31 34 40 62 50 51 60 61 61 65 60 50
18 23 28 30 16 24 15 16 13 11 5 13 11 5 26 42 9 32 38 38 32 34 32 33 39 43 49 50 45 45 40 37 36 27 32 28 44 30 8 15 23 33 30 27 25
15 22 24 23 12 10 12 11 7 4 9 12 8 13 41 35 33 8 42 35 42 45 41 67 47 23 36 67 38 50 34 29 29 30 32 41 21 23 22 26 22 16 14 15 12
13 17 19 17 12 7 8 5 3 7 1 7 16 31 42 33 27 27 47 37 34 44 50 63 65 50 48 37 49 36 24 22 21 21 29 39 32 23 25 21 15 10 11 3 5
9 13 14 11 3 5 6 2 7 3 6 10 16 25 36 30 24 32 33 33 22 26 31 53 56 56 54 51 43 51 36 19 21 19 34 18 25 36 7 11 13 14 10 5 10
5 10 11 12 10 9 7 2 2 5 7 16 19 33 11 25 24 31 31 18 26 31 31 32 42 44 38 55 51 46 50 25 38 26 28 23 20 18 27 28 20 20 11 8 12
6 11 11 13 13 9 2 3 4 3 4 15 27 16 19 27 22 21 29 8 9 12 15 22 21 44 36 50 50 51 43 55 36 26 17 25 31 16 14 30 28 20 12 9 14
16 17 10 12 10 8 2 5 3 3 9 5 9 6 29 29 23 30 15 11 20 16 8 11 28 30 17 29 45 48 45 41 28 38 40 36 35 17 29 34 32 21 15 12 17
20 10 11 13 8 4 2 5 3 3 5 5 9 18 23 24 25 33 12 29 16 47 40 20 14 16 14 21 38 34 32 39 39 32 30 27 25 16 28 34 31 20 16 15 19
10 6 14 11 4 3 5 4 5 3 2 7 12 18 22 26 32 27 15 28 42 46 49 6 12 16 28 9 11 45 41 48 28 47 33 25 14 9 16 33 26 24 24 23 23
9 10 11 3 5 7 6 7 8 5 3 4 8 6 20 29 17 17 31 43 36 47 23 21 12 24 11 13 14 8 36 37 42 29 39 31 20 15 19 27 31 32 28 24 25
9 7 8 6 5 4 4 8 5 6 12 10 16 16 24 27 20 25 41 25 46 47 33 28 12 12 16 32 5 12 3 19 38 30 32 31 29 20 23 28 28 31 28 25 22
6 5 7 9 12 13 8 7 8 4 4 11 9 11 22 14 38 21 40 48 35 23 23 27 17 25 30 37 22 4 24 20 20 40 34 32 29 24 28 25 27 29 26 22 19
11 9 8 12 15 19 11 8 10 5 6 10 17 17 27 30 30 40 45 42 26 26 32 26 17 32 37 18 25 6 8 6 24 29 31 23 38 22 24 21 27 27 26 20 19
14 14 9 14 15 11 13 12 6 4 10 19 16 28 29 31 42 64 67 69 48 42 36 18 14 22 14 29 9 7 19 5 6 6 8 21 6 10 24 25 23 24 22 20 20
Wind_Direction_500mb
344 345 344 342 345 344 341 338 339 337 334 333 334 335 337 333 328 324 319 280 295 269 258 244 217 195 198 216 222 227 245 244 237 250 248 233 232 203 217 235 205 221 198 292 343
347 345 340 345 346 341 338 339 339 334 330 331 331 333 336 335 332 350 121 34 24 352 252 208 212 201 205 217 214 222 235 245 250 263 256 255 249 221 227 215 229 245 251 279 323
344 340 348 350 344 346 348 347 341 333 332 330 329 330 335 338 333 112 288 286 319 348 344 230 214 214 235 227 221 225 243 258 246 258 261 258 249 244 252 248 246 246 256 275 285
342 346 356 351 352 356 357 352 343 336 336 330 329 331 336 341 337 290 290 289 302 305 297 257 221 209 230 229 232 250 246 257 261 259 256 256 263 257 246 258 258 262 275 275 270
350 1 358 356 359 359 359 352 344 342 338 331 330 332 340 317 283 301 296 296 316 324 253 245 241 237 240 241 245 239 254 255 257 258 261 267 262 263 258 259 261 263 266 271 265
359 5 359 360 359 358 357 352 345 343 339 335 331 333 341 297 289 283 282 285 291 285 277 245 242 253 272 256 245 266 258 258 254 259 260 261 263 255 252 250 256 257 258 260 258
6 3 359 0 354 356 353 349 344 342 338 334 331 332 311 289 314 322 331 320 326 299 266 249 239 242 283 255 254 265 264 260 249 251 252 256 265 252 254 252 251 254 257 256 253
5 4 360 358 351 353 352 346 340 340 336 339 344 345 281 343 41 19 353 331 333 334 306 263 239 255 257 262 269 255 257 261 247 245 242 233 257 226 246 234 245 245 248 251 243
3 6 1 357 349 349 351 346 343 341 351 356 360 356 30 31 343 319 314 295 290 290 315 279 226 234 242 240 254 241 256 258 250 229 245 218 261 257 286 248 252 249 238 234 245
4 10 1 355 348 349 352 351 345 344 7 355 15 311 48 339 342 354 342 315 288 273 279 224 227 233 226 231 240 240 246 247 256 260 228 255 256 254 253 240 236 247 255 256 257
11 9 360 354 352 352 356 4 357 327 357 357 317 302 329 340 356 348 354 342 311 260 257 229 241 236 232 229 250 256 264 259 261 279 264 261 269 268 263 255 251 254 258 258 257
8 7 358 354 358 359 5 54 49 338 329 8 345 261 332 347 330 343 351 348 329 309 306 248 242 247 259 253 241 244 253 256 265 262 261 276 270 271 267 260 254 254 255 258 259
2 1 356 357 2 7 26 46 25 360 313 330 2 17 336 341 323 281 344 325 305 300 280 257 252 286 246 242 240 238 243 253 260 273 253 267 273 266 257 251 252 253 255 257 257
356 355 0 2 15 5 22 20 2 358 282 32 9 34 340 332 339 310 323 318 287 285 294 276 284 260 255 237 234 246 241 249 253 244 255 236 268 267 200 243 230 241 240 238 245
349 352 8 13 10 26 353 357 356 13 297 19 359 320 338 340 313 343 332 322 295 286 271 257 273 275 255 243 230 250 247 230 230 237 255 252 259 256 262 255 243 228 214 229 257
348 360 10 20 26 16 7 25 77 236 314 7 333 337 337 340 323 318 320 324 286 273 264 267 266 261 253 278 242 236 215 218 220 226 236 239 240 254 237 227 195 152 159 107 5
352 13 23 37 359 47 55 52 236 303 3 354 339 330 323 327 319 330 337 358 20 335 321 298 256 243 240 244 247 217 215 212 209 206 236 219 220 238 244 207 174 160 131 56 17
13 42 66 73 90 85 53 248 161 57 322 340 329 313 307 341 332 331 335 351 341 341 305 327 260 247 235 222 225 216 215 216 214 214 228 176 233 225 214 181 144 137 112 55 35
93 109 81 97 109 85 350 87 78 353 13 318 318 314 326 341 328 323 328 280 320 353 297 311 291 261 247 214 213 210 216 222 242 260 248 206 234 246 209 190 166 152 138 84 59
141 111 74 113 115 60 230 76 138 236 309 325 315 334 321 332 326 341 319 293 315 319 272 287 296 269 284 211 219 225 208 218 226 229 226 233 226 240 177 171 178 166 135 101 75
153 121 123 110 99 69 143 98 276 275 268 266 295 295 307 321 315 321 278 298 312 324 325 299 267 283 186 202 196 202 220 213 222 223 233 234 216 207 177 182 172 146 125 96 76
150 128 170 87 184 147 157 151 277 263 156 269 275 273 279 309 303 304 275 300 314 332 323 334 293 288 264 350 346 224 211 202 209 217 236 257 221 123 186 182 163 144 121 100 91
129 114 178 163 196 176 146 225 243 253 341 287 278 279 296 305 309 299 297 312 322 332 327 335 314 339 304 181 46 319 232 216 222 235 216 222 216 113 140 151 160 149 139 122 106
139 136 146 188 185 168 183 215 223 242 279 249 278 281 320 306 290 296 299 313 320 320 329 339 293 309 319 313 88 161 237 284 242 228 229 216 213 151 162 158 156 152 154 136 109
132 157 164 169 182 198 216 199 240 276 231 271 244 270 334 302 314 301 315 314 323 321 321 335 290 315 321 318 335 213 166 202 254 240 236 232 234 185 184 176 159 155 152 144 110
145 162 171 151 164 199 193 217 232 237 250 262 257 319 311 294 295 303 311 306 308 308 325 315 284 321 313 278 334 149 138 197 182 236 246 252 249 234 159 148 157 153 142 123 95
171 151 155 163 188 206 217 228 210 268 261 254 292 307 297 302 308 295 287 280 273 282 296 281 303 323 297 336 322 93 353 354 192 162 279 216 248 173 196 176 156 152 128 103 81
Wind_Speed_850mb
18 19 21 22 24 27 29 31 33 35 37 40 40 41 41 44 45 47 36 16 24 27 29 22 19 21 27 30 26 21 21 31 37 36 25 7 20 17 12 14 9 6 8 2 9
19 20 22 26 27 28 30 33 33 34 37 41 44 43 43 45 46 21 2 9 20 14 18 20 25 26 26 30 21 28 29 45 33 27 22 12 21 13 18 28 21 17 14 10 11
20 22 25 26 27 28 31 33 34 36 38 39 41 41 42 43 30 3 7 13 19 20 7 15 18 26 37 31 38 29 47 35 27 34 38 33 32 30 27 31 32 30 15 20 20
20 24 27 27 31 33 34 34 34 36 37 39 40 41 38 35 16 11 17 23 35 32 20 10 15 27 25 40 44 34 40 42 42 42 34 35 42 33 38 42 37 29 34 32 32
20 25 27 30 33 36 37 37 39 41 41 41 42 41 33 14 14 23 23 22 18 18 14 23 27 28 33 24 41 39 38 43 40 46 48 43 45 46 55 41 51 42 41 41 39
25 28 30 33 36 39 42 42 44 45 43 40 41 41 22 16 23 21 25 30 33 27 20 21 28 34 34 32 34 30 31 39 41 44 49 47 52 53 44 35 54 49 49 47 43
24 26 30 33 37 40 43 46 47 45 44 42 40 33 23 15 19 26 22 21 19 22 31 30 25 24 11 26 34 33 37 37 41 43 40 35 51 53 54 55 65 64 55 48 46
23 27 31 36 41 45 47 48 48 43 41 38 32 22 8 15 14 21 22 17 19 20 22 28 35 31 34 31 35 26 33 34 26 22 42 40 51 6 5 24 33 37 44 41 40
22 27 33 39 45 47 48 51 42 37 32 32 20 26 6 14 41 46 45 43 44 23 28 19 18 33 32 30 32 33 38 41 31 20 25 35 39 30 14 31 38 33 35 32 34
22 29 34 40 45 50 52 47 35 27 33 26 20 18 10 41 49 39 38 32 27 35 28 12 16 21 32 31 41 33 41 36 43 34 34 44 47 33 33 27 28 30 35 38 43
24 28 32 36 41 50 55 32 18 4 38 10 23 8 18 38 26 31 42 45 23 28 32 30 20 43 42 46 52 44 48 45 37 15 25 34 42 39 37 48 42 47 54 52 50
24 26 29 34 34 43 42 21 19 12 14 11 9 6 13 28 40 25 46 27 32 27 30 29 48 58 38 41 45 47 51 56 41 33 28 41 56 49 46 44 52 52 56 61 61
21 23 28 32 21 35 35 27 17 13 6 11 8 8 12 41 40 21 57 41 32 30 23 38 74 24 45 37 42 47 51 39 42 31 34 40 62 50 51 60 61 61 65 60 50
18 23 28 30 16 24 15 16 13 11 5 13 11 5 26 42 9 32 38 38 32 34 32 33 39 43 49 50 45 45 40 37 36 27 32 28 44 30 8 15 23 33 30 27 25
15 22 24 23 12 10 12 11 7 4 9 12 8 13 41 35 33 8 42 35 42 45 41 67 47 23 36 67 38 50 34 29 29 30 32 41 21 23 22 26 22 16 14 15 12
13 17 19 17 12 7 8 5 3 7 1 7 16 31 42 33 27 27 47 37 34 44 50 63 65 50 48 37 49 36 24 22 21 21 29 39 32 23 25 21 15 10 11 3 5
9 13 14 11 3 5 6 2 7 3 6 10 16 25 36 30 24 32 33 33 22 26 31 53 56 56 54 51 43 51 36 19 21 19 34 18 25 36 7 11 13 14 10 5 10
5 10 11 12 10 9 7 2 2 5 7 16 19 33 11 25 24 31 31 18 26 31 31 32 42 44 38 55 51 46 50 25 38 26 28 23 20 18 27 28 20 20 11 8 12
6 11 11 13 13 9 2 3 4 3 4 15 27 16 19 27 22 21 29 8 9 12 15 22 21 44 36 50 50 51 43 55 36 26 17 25 31 16 14 30 28 20 12 9 14
16 17 10 12 10 8 2 5 3 3 9 5 9 6 29 29 23 30 15 11 20 16 8 11 28 30 17 29 45 48 45 41 28 38 40 36 35 17 29 34 32 21 15 12 17
20 10 11 13 8 4 2 5 3 3 5 5 9 18 23 24 25 33 12 29 16 47 40 20 14 16 14 21 38 34 32 39 39 32 30 27 25 16 28 34 31 20 16 15 19
10 6 14 11 4 3 5 4 5 3 2 7 12 18 22 26 32 27 15 28 42 46 49 6 12 16 28 9 11 45 41 48 28 47 33 25 14 9 16 33 26 24 24 23 23
9 10 11 3 5 7 6 7 8 5 3 4 8 6 20 29 17 17 31 43 36 47 23 21 12 24 11 13 14 8 36 37 42 29 39 31 20 15 19 27 31 32 28 24 25
9 7 8 6 5 4 4 8 5 6 12 10 16 16 24 27 20 25 41 25 46 47 33 28 12 12 16 32 5 12 3 19 38 30 32 31 29 20 23 28 28 31 28 25 22
6 5 7 9 12 13 8 7 8 4 4 11 9 11 22 14 38 21 40 48 35 23 23 27 17 25 30 37 22 4 24 20 20 40 34 32 29 24 28 25 27 29 26 22 19
11 9 8 12 15 19 11 8 10 5 6 10 17 17 27 30 30 40 45 42 26 26 32 26 17 32 37 18 25 6 8 6 24 29 31 23 38 22 24 21 27 27 26 20 19
14 14 9 14 15 11 13 12 6 4 10 19 16 28 29 31 42 64 67 69 48 42 36 18 14 22 14 29 9 7 19 5 6 6 8 21 6 10 24 25 23 24 22 20 20
Wind_Direction_850mb
344 345 344 342 345 344 341 338 339 337 334 333 334 335 337 333 328 324 319 280 295 269 258 244 217 195 198 216 222 227 245 244 237 250 248 233 232 203 217 235 205 221 198 292 343
347 345 340 345 346 341 338 339 339 334 330 331 331 333 336 335 332 350 121 34 24 352 252 208 212 201 205 217 214 222 235 245 250 263 256 255 249 221 227 215 229 245 251 279 323
344 340 348 350 344 346 348 347 341 333 332 330 329 330 335 338 333 112 288 286 319 348 344 230 214 214 235 227 221 225 243 258 246 258 261 258 249 244 252 248 246 246 256 275 285
342 346 356 351 352 356 357 352 343 336 336 330 329 331 336 341 337 290 290 289 302 305 297 257 221 209 230 229 232 250 246 257 261 259 256 256 263 257 246 258 258 262 275 275 270
350 1 358 356 359 359 359 352 344 342 338 331 330 332 340 317 283 301 296 296 316 324 253 245 241 237 240 241 245 239 254 255 257 258 261 267 262 263 258 259 261 263 266 271 265
359 5 359 360 359 358 357 352 345 343 339 335 331 333 341 297 289 283 282 285 291 285 277 245 242 253 272 256 245 266 258 258 254 259 260 261 263 255 252 250 256 257 258 260 258
6 3 359 0 354 356 353 349 344 342 338 334 331 332 311 289 314 322 331 320 326 299 266 249 239 242 283 255 254 265 264 260 249 251 252 256 265 252 254 252 251 254 257 256 253
5 4 360 358 351 353 352 346 340 340 336 339 344 345 281 343 41 19 353 331 333 334 306 263 239 255 257 262 269 255 257 261 247 245 242 233 257 226 246 234 245 245 248 251 243
3 6 1 357 349 349 351 346 343 341 351 356 360 356 30 31 343 319 314 295 290 290 315 279 226 234 242 240 254 241 256 258 250 229 245 218 261 257 286 248 252 249 238 234 245
4 10 1 355 348 349 352 351 345 344 7 355 15 311 48 339 342 354 342 315 288 273 279 224 227 233 226 231 240 240 246 247 256 260 228 255 256 254 253 240 236 247 255 256 257
11 9 360 354 352 352 356 4 357 327 357 357 317 302 329 340 356 348 354 342 311 260 257 229 241 236 232 229 250 256 264 259 261 279 264 261 269 268 263 255 251 254 258 258 257
8 7 358 354 358 359 5 54 49 338 329 8 345 261 332 347 330 343 351 348 329 309 306 248 242 247 259 253 241 244 253 256 265 262 261 276 270 271 267 260 254 254 255 258 259
2 1 356 357 2 7 26 46 25 360 313 330 2 17 336 341 323 281 344 325 305 300 280 257 252 286 246 242 240 238 243 253 260 273 253 267 273 266 257 251 252 253 255 257 257
356 355 0 2 15 5 22 20 2 358 282 32 9 34 340 332 339 310 323 318 287 285 294 276 284 260 255 237 234 246 241 249 253 244 255 236 268 267 200 243 230 241 240 238 245
349 352 8 13 10 26 353 357 356 13 297 19 359 320 338 340 313 343 332 322 295 286 271 257 273 275 255 243 230 250 247 230 230 237 255 252 259 256 262 255 243 228 214 229 257
348 360 10 20 26 16 7 25 77 236 314 7 333 337 337 340 323 318 320 324 286 273 264 267 266 261 253 278 242 236 215 218 220 226 236 239 240 254 237 227 195 152 159 107 5
352 13 23 37 359 47 55 52 236 303 3 354 339 330 323 327 319 330 337 358 20 335 321 298 256 243 240 244 247 217 215 212 209 206 236 219 220 238 244 207 174 160 131 56 17
13 42 66 73 90 85 53 248 161 57 322 340 329 313 307 341 332 331 335 351 341 341 305 327 260 247 235 222 225 216 215 216 214 214 228 176 233 225 214 181 144 137 112 55 35
93 109 81 97 109 85 350 87 78 353 13 318 318 314 326 341 328 323 328 280 320 353 297 311 291 261 247 214 213 210 216 222 242 260 248 206 234 246 209 190 166 152 138 84 59
141 111 74 113 115 60 230 76 138 236 309 325 315 334 321 332 326 341 319 293 315 319 272 287 296 269 284 211 219 225 208 218 226 229 226 233 226 240 177 171 178 166 135 101 75
153 121 123 110 99 69 143 98 276 275 268 266 295 295 307 321 315 321 278 298 312 324 325 299 267 283 186 202 196 202 220 213 222 223 233 234 216 207 177 182 172 146 125 96 76
150 128 170 87 184 147 157 151 277 263 156 269 275 273 279 309 303 304 275 300 314 332 323 334 293 288 264 350 346 224 211 202 209 217 236 257 221 123 186 182 163 144 121 100 91
129 114 178 163 196 176 146 225 243 253 341 287 278 279 296 305 309 299 297 312 322 332 327 335 314 339 304 181 46 319 232 216 222 235 216 222 216 113 140 151 160 149 139 122 106
139 136 146 188 185 168 183 215 223 242 279 249 278 281 320 306 290 296 299 313 320 320 329 339 293 309 319 313 88 161 237 284 242 228 229 216 213 151 162 158 156 152 154 136 109
132 157 164 169 182 198 216 199 240 276 231 271 244 270 334 302 314 301 315 314 323 321 321 335 290 315 321 318 335 213 166 202 254 240 236 232 234 185 184 176 159 155 152 144 110
145 162 171 151 164 199 193 217 232 237 250 262 257 319 311 294 295 303 311 306 308 308 325 315 284 321 313 278 334 149 138 197 182 236 246 252 249 234 159 148 157 153 142 123 95
171 151 155 163 188 206 217 228 210 268 261 254 292 307 297 302 308 295 287 280 273 282 296 281 303 323 297 336 322 93 353 354 192 162 279 216 248 173 196 176 156 152 128 103 81